Regional Weather Roundup
Issued by NWS

Home | Current Version | Previous Version | Graphics & Text | Print | Product List | Glossary On
Versions: 1 2 3 4 5 6 7 8 9 10 11 12 13 14 15 16 17 18 19 20 21 22 23 24 25 26 27 28 29 30 31 32 33 34 35 36 37 38 39 40 41 42 43 44 45 46 47 48 49 50
000
ASUS45 KCYS 010310
RWRWY

WYOMING REGIONAL WEATHER ROUNDUP
NATIONAL WEATHER SERVICE CHEYENNE WY
800 PM MST SAT FEB 28 2015

NOTE:  "FAIR" INDICATES FEW OR NO CLOUDS BELOW 12,000 FEET
WITH NO SIGNIFICANT WEATHER AND/OR OBSTRUCTIONS TO VISIBILITY.

WYZ001-010400-
YELLOWSTONE NATIONAL PARK

CITY           SKY/WX    TMP DP  RH WIND       PRES   REMARKS
LK YELLOWSTONE   N/A     12   2  64 CALM      29.90R
W YELLOWSTONE  NOT AVBL

$$
WYZ002>013-054>058-071-098>099-010400-
NORTHERN WYOMING

CITY           SKY/WX    TMP DP  RH WIND       PRES   REMARKS
JACKSON        PTCLDY     9   5  85 VRB7      29.86R WCI  -3
CODY           MOCLDY    14   9  79 N3        30.05R
GREYBULL       CLOUDY    24   9  52 NW10      30.09R WCI  14
WORLAND        CLOUDY    22  15  75 S3        30.07R
SHERIDAN       FAIR      12   5  73 CALM      30.13R
BUFFALO        CLOUDY    10   5  80 W7        30.07R WCI  -1
GILLETTE       FAIR      10   6  84 W3        30.09S
HULETT         CLOUDY    18  10  73 MISG      30.10S
NEWCASTLE      FAIR      18   9  68 NW12      30.09R WCI   5

$$
WYZ014>020-022>026-101>103-010400-
CENTRAL WYOMING

CITY           SKY/WX    TMP DP  RH WIND       PRES   REMARKS
BIG PINEY      CLOUDY    21  12  68 S12       29.87R WCI   9
PINEDALE       CLOUDY    18  12  79 CALM      29.86R
DUBOIS         FLURRIES  12   9  85 SE10      29.90R WCI  -1
LANDER         CLOUDY    17   8  67 SW8       29.99R WCI   7
RIVERTON       CLOUDY    18  11  74 E5        30.00R WCI  11
CASPER         CLOUDY    18   9  68 NE12      30.00S WCI   5
DOUGLAS        CLOUDY    19  13  77 CALM      30.03S

$$
WYZ021-027>030-104>119-010400-
SOUTHERN WYOMING

CITY           SKY/WX    TMP DP  RH WIND       PRES   REMARKS
EVANSTON       LGT SNOW  24  22  91 E6        29.82R FOG     WCI  17
FORT BRIDGER   LGT SNOW  24  24  97 E10       29.86R WCI  14
ROCK SPRINGS   LGT SNOW  14   7  73 NE20      29.88R WCI  -3
DIXON          CLOUDY    31  18  58 CALM      29.82R
RAWLINS        CLOUDY    16   7  67 NE17      29.88R WCI   0
SARATOGA       CLOUDY    19  12  73 NW10      29.84R WCI   8
LARAMIE        CLOUDY    15   9  76 SE20      29.85S WCI  -2
CHEYENNE       CLOUDY    19  11  70 E7        29.94S WCI  10
TORRINGTON     CLOUDY    25  12  58 NE9       30.05R WCI  15
PINE BLUFFS    CLOUDY    21  14  73 E5        30.01S WCI  15

$$



USA.gov is the U.S. government's official web portal to all federal, state and local government web resources and services.